SCP
0 0 0 0 0 0 0 0 0 0 0 0 0 0 0 0 0 0 0 0 0 0 0 0 0 0 0 0 0 0 0 0 0 0 0 0 0 0 0 0 0 0 0
0 0 0 0 0 0 0 0 0 0 0 0 0 0 0 0 0 0 0 0 0 0 0 0 0 0 0 0 0 0 0 0 0 0 0 0 0 0 0 0 0 0 0
0 0 0 0 0 0 0 0 0 0 0 0 0 0 0 0 0 0 0 0 0 0 0 0 0 0 0 0 0 0 0 0 0 0 0 0 0 0 0 0 0 0 0
0 0 0 0 0 0 0 0 0 0 0 0 0 0 0 0 0 0 0 0 0 0 0 0 0 0 0 0 0 0 0 0 0 0 0 0 0 0 0 0 0 0 0
0 0 0 0 -0 0 0 0 0 0 0 0 0 0 0 0 0 0 0 0 0 0 0 0 0 0 0 0 0 0 0 0 0 0 0 0 0 0 0 0 0 0 0
0 0 0 0 -0 -0 0 0 0 0 0 0 0 0 0 0 0 0 0 0 0 0 0 0 0 0 0 0 0 0 0 0 0 0 0 0 0 0 0 0 0 0 0
0 0 0 0 0 0 0 0 0 0 0 0 0 0 0 0 0 0 0 0 0 0 0 0 0 0 0 0 0 0 0 0 0 0 0 0 0 0 0 0 0 0 0
0 0 0 0 0 0 0 0 0 0 0 0 0 0 0 0 0 0 0 0 0 0 0 0 0 0 0 0 0 0 0 0 0 0 0 0 0 0 0 0 0 0 0
0 0 0 0 0 0 0 0 0 0 0 0 0 0 0 0 0 0 0 0 0 0 0 0 0 0 0 0 0 0 0 0 0 0 0 0 0 0 0 0 0 0 0
0 0 0 0 0 0 0 0 0 0 0 0 0 0 0 0 0 0 0 0 0 0 0 0 0 0 0 0 0 0 0 0 0 0 0 0 0 0 0 0 0 0 0
0 0 0 0 0 0 0 0 0 0 0 0 0 0 0 0 0 0 0 0 0 0 0 0 0 0 0 0 0 0 0 0 0 0 0 0 0 0 0 0 0 0 0
0 0 0 0 0 0 0 0 0 0 0 0 0 0 0 0 0 0 0 0 0 0 0 0 0 0 0 0 0 0 0 0 0 0 0 0 0 0 0 0 0 0 0
0 0 0 0 0 0 0 0 0 0 0 0 0 0 0 0 0 0 0 0 0 0 0 0 0 0 0 0 0 0 0 0 0 0 0 0 0 0 0 0 0 0 0
0 0 0 0 0 0 0 0 0 0 0 0 0 0 0 0 0 0 0 0 0 0 0 0 0 0 0 0 0 0 0 0 0 0 0 0 0 0 0 0 0 0 0
0 0 0 0 0 0 0 0 0 0 0 0 0 0 0 0 0 0 0 0 0 0 0 0 0 0 0 0 0 0 0 0 0 0 0 0 0 0 0 0 0 0 0
0 0 0 0 0 0 0 0 0 0 0 0 0 0 0 0 0 0 0 0 0 0 0 0 0 0 0 0 0 0 0 0 0 0 0 0 0 0 0 0 0 0 0
0 0 0 0 0 0 0 0 0 0 0 0 0 0 0 0 0 0 0 0 0 0 0 0 0 0 0 0 0 0 0 0 0 0 0 0 0 0 0 0 0 0 0
0 0 0 0 0 0 0 0 0 0 0 0 0 0 0 0 0 0 0 0 0 0 0 0 0 0 0 0 0 0 0 0 0 0 0 0 0 0 0 0 0 0 0
0 0 0 0 0 0 0 0 0 0 0 0 0 0 0 0 0 0 0 0 0 0 0 0 0 0 0 0 0 0 0 0 0 0 0 0 0 0 0 0 0 0 0
0 0 0 0 0 0 0 0 0 0 0 0 0 0 0 0 0 0 0 0 0 0 0 0 0 0 0 0 0 0 0 0 0 0 0 0 0 0 0 0 0 0 0
0 0 0 0 0 0 0 0 0 0 0 0 0 0 0 0 0 0 0 0 0 0 0 0 0 0 0 0 0 0 0 0 0 0 0 0 0 0 0 0 0 0 0
0 0 0 0 0 0 0 0 0 0 0 0 0 0 0 0 0 0 0 0 0 0 0 0 0 0 0 0 0 0 0 0 0 0 0 0 0 0 0 0 0 0 0
0 0 0 0 0 0 0 0 0 0 0 0 0 0 0 0 0 0 0 0 0 0 0 0 0 0 0 0 0 0 0 0 0 0 0 0 0 0 0 0 0 0 0
0 0 0 0 0 0 0 0 0 0 0 0 0 0 0 0 0 0 0 0 0 0 0 0 0 0 0 0 0 0 0 0 0 0 0 0 0 0 0 0 0 0 0
0 0 0 0 0 0 0 0 0 0 0 0 0 0 0 0 0 0 0 0 0 0 0 0 0 0 0 0 0 0 0 0 0 0 0 0 0 0 0 0 0 0 0
0 0 0 0 0 0 0 0 0 0 0 0 0 0 0 0 0 0 0 0 0 0 0 0 0 0 0 0 0 0 0 0 0 0 0 0 0 0 0 0 0 0 0
Wind_Speed
1 1 1 1 0 0 0 1 1 1 1 1 1 2 2 2 2 2 2 2 3 2 2 3 3 3 2 2 2 3 3 3 4 3 2 2 2 3 2 2 3 3 2
1 1 0 0 1 0 1 1 1 1 1 1 1 2 2 2 2 2 2 3 3 3 3 3 3 3 3 3 3 3 3 3 4 4 2 2 3 3 3 3 2 2 3
0 0 0 0 0 1 1 1 1 1 2 2 2 2 2 2 2 3 3 3 3 3 3 3 3 3 4 3 3 3 3 3 3 3 3 2 2 2 2 2 3 3 3
1 1 0 0 1 1 2 2 2 2 2 2 2 3 3 3 3 3 3 2 2 3 3 3 4 4 4 4 4 4 3 3 3 3 3 2 2 2 2 2 2 2 3
1 1 1 1 1 1 1 2 2 2 3 3 3 3 3 3 3 3 3 3 3 3 3 3 3 4 4 4 3 3 4 3 3 3 3 3 3 2 3 2 3 3 3
2 2 1 1 1 1 2 2 2 3 3 3 3 3 3 3 4 5 4 4 4 4 3 3 3 3 3 4 4 5 5 5 5 5 4 5 5 4 3 3 3 3 3
2 2 1 1 1 2 2 2 2 3 3 3 3 3 4 4 5 5 5 4 4 4 4 4 3 3 4 4 4 4 5 6 7 6 6 6 6 5 4 4 4 4 4
3 2 2 2 2 2 2 3 3 3 3 3 3 4 4 4 5 5 4 4 4 4 5 5 5 5 4 4 4 4 4 4 5 5 5 6 5 4 4 4 4 3 4
3 3 3 2 3 3 3 3 3 3 3 3 4 4 4 5 5 5 4 3 3 4 4 5 5 5 6 6 5 5 5 4 5 7 7 6 6 5 4 3 3 3 3
4 4 3 3 4 4 4 4 3 3 4 3 4 4 4 4 5 5 5 3 3 3 3 4 5 7 7 7 6 6 6 5 4 4 5 5 4 4 5 5 4 4 3
3 3 3 3 4 4 3 3 3 3 3 3 4 4 4 4 5 6 5 3 3 4 4 4 4 6 8 8 7 6 6 5 4 4 4 3 3 3 3 3 4 4 5
2 3 3 3 3 3 3 3 3 3 3 4 4 4 3 3 4 5 6 6 5 4 4 4 4 7 8 8 6 6 6 4 3 3 3 4 3 3 3 3 3 3 4
2 3 3 3 3 3 3 3 3 3 3 3 3 4 4 3 4 7 7 7 6 4 4 6 7 7 7 6 6 5 4 3 4 4 4 4 3 3 2 2 1 2 3
3 3 3 3 3 3 3 3 3 4 4 4 4 4 4 4 4 4 4 4 5 4 4 4 6 6 5 4 3 3 3 3 4 4 4 3 2 2 3 2 2 2 2
3 3 3 4 3 3 4 4 5 5 5 5 5 5 5 5 6 7 5 4 4 4 3 3 3 3 3 3 2 3 3 3 4 4 4 3 3 3 3 3 3 3 3
4 4 3 3 3 3 3 4 6 6 7 8 8 7 6 8 9 9 9 8 8 6 4 3 4 4 4 4 4 4 4 4 4 4 4 4 4 4 3 3 3 4 4
5 4 3 4 4 3 4 4 4 4 6 7 8 8 8 8 8 8 8 7 7 6 4 4 4 4 4 4 4 4 4 4 3 4 4 4 4 4 4 4 4 4 4
5 5 4 4 4 4 4 4 4 4 4 4 6 8 8 8 8 8 7 5 4 4 4 5 5 4 4 4 4 4 4 3 3 4 4 4 4 4 4 4 4 4 4
4 4 4 4 4 4 4 4 4 5 5 5 4 5 6 7 7 7 5 4 4 4 4 4 4 4 4 4 4 4 4 4 4 4 4 4 4 4 4 5 4 5 5
4 5 4 3 3 3 4 4 4 4 5 5 5 4 3 4 4 4 4 4 4 4 4 4 4 4 4 4 4 4 4 4 4 4 4 4 4 5 5 6 5 5 4
3 3 4 4 4 4 4 4 4 5 5 5 5 6 7 5 4 5 4 4 4 5 5 4 4 4 4 4 4 5 5 4 4 4 4 4 4 4 5 5 5 5 4
3 3 3 4 4 4 4 4 5 5 6 6 5 5 7 5 4 4 4 4 4 4 4 4 4 4 4 4 5 5 5 5 4 4 4 4 4 4 4 4 4 4 4
3 3 3 3 4 4 4 4 5 5 5 6 5 5 4 4 4 5 5 4 4 4 4 4 4 4 4 4 4 5 5 5 5 5 5 5 5 5 5 5 6 5 5
3 4 4 4 4 4 4 5 5 5 5 5 5 5 5 5 5 5 5 4 4 4 4 4 4 6 6 5 4 4 5 5 5 5 7 6 6 5 5 5 6 6 5
4 4 4 4 4 4 5 5 5 5 5 5 5 5 5 5 5 4 4 4 4 4 5 4 4 5 6 7 6 5 6 7 6 5 5 6 6 6 6 6 5 5 5
4 4 4 4 4 4 4 5 5 5 5 5 5 5 4 4 4 4 4 4 4 4 4 4 5 5 6 5 6 7 7 7 7 7 5 5 6 6 6 5 6 5 6
Wind_Direction
68 57 41 23 5 341 312 307 301 293 290 277 276 277 275 270 264 247 247 251 244 243 243 237 243 247 242 240 236 237 240 234 240 257 255 246 251 263 270 269 276 275 267
63 62 43 12 0 331 304 306 307 295 291 282 277 273 273 276 270 252 246 250 246 243 245 244 243 239 241 244 240 241 241 238 236 247 246 241 256 266 271 268 275 278 272
127 132 80 333 281 299 285 283 285 280 279 278 271 270 274 273 271 261 250 252 253 250 246 243 246 238 239 239 240 242 243 244 242 241 252 253 253 263 268 275 278 277 282
208 194 181 286 289 291 296 278 273 271 268 267 264 261 263 263 261 256 249 249 254 259 257 253 252 247 243 240 237 236 234 235 233 234 244 249 253 262 257 263 275 280 287
214 226 242 277 291 295 298 296 279 269 267 263 262 261 260 256 251 254 253 248 250 253 256 258 257 255 259 256 247 238 231 232 229 230 239 248 243 240 243 261 269 286 288
213 232 261 279 294 294 295 296 292 285 280 272 264 260 261 259 260 261 256 246 247 248 250 254 253 245 247 254 253 248 242 234 232 233 238 238 244 246 250 243 250 266 275
212 226 241 256 273 285 287 286 285 284 279 277 273 265 264 262 266 257 251 251 245 245 246 247 249 249 244 243 244 245 245 246 243 242 239 240 244 240 238 240 245 258 267
216 224 234 248 262 276 274 273 282 286 278 273 274 274 270 264 267 264 256 250 247 246 247 247 246 246 244 241 241 239 240 241 244 245 246 249 252 247 237 246 256 278 288
222 231 236 240 249 256 262 270 278 279 278 280 277 274 274 270 266 263 259 251 247 251 252 250 246 246 243 243 241 237 242 245 247 248 251 256 253 246 238 230 227 232 257
231 239 239 237 241 247 255 265 274 273 275 280 280 276 268 269 272 268 261 250 246 251 253 251 247 246 241 241 240 235 239 245 246 251 251 252 245 227 219 225 225 227 241
241 245 245 243 246 251 258 264 268 271 271 272 274 277 272 270 266 268 263 259 248 250 252 254 253 249 249 245 243 241 243 248 242 241 244 247 245 234 231 237 242 232 233
236 241 245 248 248 247 251 258 258 254 258 263 268 275 274 274 269 264 261 264 266 259 256 260 260 258 257 250 248 238 236 240 234 235 240 241 239 237 237 241 249 260 267
235 244 250 253 250 246 243 246 250 245 245 254 259 265 272 274 271 272 266 263 258 264 265 266 266 263 265 253 243 236 234 229 228 231 235 240 242 240 238 238 242 250 266
234 241 243 243 247 246 245 239 239 238 242 246 254 260 266 266 263 259 259 260 257 255 260 268 265 262 261 255 242 235 234 233 233 235 237 238 236 231 231 230 234 241 259
237 238 241 240 244 246 247 247 247 245 245 250 251 254 256 261 263 272 271 262 258 253 257 265 261 253 240 236 239 239 235 228 229 231 228 227 226 227 229 224 226 231 238
229 233 235 241 244 247 255 270 269 269 273 267 268 268 269 273 278 271 271 272 269 259 256 246 238 236 237 238 237 238 233 233 233 230 227 223 223 225 228 226 224 225 233
230 237 240 240 241 244 249 255 271 278 270 269 268 270 272 277 277 274 271 267 263 250 243 234 236 237 238 239 240 238 237 236 233 230 227 225 224 224 224 224 225 228 234
237 238 240 241 240 240 243 249 253 261 270 270 269 271 275 276 275 274 270 260 251 241 238 235 235 238 238 239 240 240 239 232 226 229 228 226 223 224 225 227 226 227 233
237 237 239 245 244 243 243 246 250 255 261 269 276 273 275 276 271 266 255 242 241 243 244 244 239 238 240 241 244 243 239 232 227 226 226 225 223 224 228 230 231 226 230
238 244 246 246 245 244 242 242 246 250 256 260 262 268 271 261 254 251 242 245 245 248 250 250 247 244 240 238 239 240 239 234 226 224 224 224 222 223 228 230 230 229 231
244 243 241 244 243 244 245 245 247 250 253 258 261 264 267 258 254 251 247 247 248 250 250 252 252 247 240 235 234 234 232 233 230 227 225 224 222 223 226 227 227 229 233
245 244 241 242 245 246 248 248 248 251 255 260 266 269 264 258 252 253 253 254 255 254 252 250 251 248 241 236 232 231 230 232 228 225 226 224 223 225 225 226 227 229 228
249 250 250 250 250 252 252 251 250 252 256 259 262 262 257 254 254 254 256 259 259 260 258 254 253 250 244 239 237 232 231 231 228 222 222 223 222 222 222 224 225 228 229
252 250 252 253 252 252 253 256 255 255 257 260 261 260 260 260 260 261 262 262 262 262 260 257 253 252 253 251 243 238 237 236 231 225 223 223 223 223 223 224 226 227 226
256 254 254 254 255 256 258 260 260 261 262 262 262 262 264 265 265 266 266 265 265 263 264 263 257 255 251 250 250 248 244 242 238 227 219 220 222 222 221 223 225 225 222
267 263 263 262 260 259 259 262 264 266 266 267 266 266 266 267 267 267 268 265 264 266 266 264 262 265 267 260 255 254 249 244 237 228 221 217 217 220 218 222 223 221 219